Date,TemperatureHighF,TemperatureAvgF,TemperatureLowF,DewpointHighF,DewpointAvgF,DewpointLowF,HumidityHigh,HumidityAvg,HumidityLow,PressureMaxIn,PressureMinIn,WindSpeedMaxMPH,WindSpeedAvgMPH,GustSpeedMaxMPH,PrecipitationSumIn
2012-12-1,46,42,37,-100,-100,-100,0,0,100,0.00,40.00,0,-999,0,0.18
2012-12-2,43,39,35,-100,-100,-100,0,0,100,0.00,40.00,0,-999,0,0.53
2012-12-3,44,40,34,-100,-100,-100,0,0,100,0.00,40.00,0,-999,0,0.01
2012-12-4,50,44,36,-100,-100,-100,0,0,100,0.00,40.00,0,-999,0,0.46
2012-12-5,46,38,31,-100,-100,-100,0,0,100,0.00,40.00,0,-999,0,0.08
2012-12-6,36,32,28,-100,-100,-100,0,0,100,0.00,40.00,0,-999,0,0.00
2012-12-7,40,34,29,-100,-100,-100,0,0,100,0.00,40.00,0,-999,0,0.00
2012-12-8,32,30,29,-100,-100,-100,0,0,100,0.00,40.00,0,-999,0,0.00
2012-12-9,42,34,27,-100,-100,-100,0,0,100,0.00,40.00,0,-999,0,0.01
2012-12-10,48,41,34,-100,-100,-100,0,0,100,0.00,40.00,0,-999,0,0.00
2012-12-11,40,37,33,-100,-100,-100,0,0,100,0.00,40.00,0,-999,0,0.04
2012-12-12,36,32,24,-100,-100,-100,0,0,100,0.00,40.00,0,-999,0,0.05
2012-12-13,41,28,17,-100,-100,-100,0,0,100,0.00,40.00,0,-999,0,0.00
2012-12-14,39,27,16,-100,-100,-100,0,0,100,0.00,40.00,0,-999,0,0.11
2012-12-15,31,26,21,-100,-100,-100,0,0,100,0.00,40.00,0,-999,0,0.08
2012-12-16,38,32,18,-100,-100,-100,0,0,100,0.00,40.00,0,-999,0,0.34
2012-12-17,37,28,19,-100,-100,-100,0,0,100,0.00,40.00,0,-999,0,0.52
2012-12-18,29,22,14,-100,-100,-100,0,0,100,0.00,40.00,0,-999,0,0.07
2012-12-19,34,28,20,-100,-100,-100,0,0,100,0.00,40.00,0,-999,0,0.00
2012-12-20,39,34,31,-100,-100,-100,0,0,100,0.00,40.00,0,-999,0,0.04
2012-12-21,38,34,31,-100,-100,-100,0,0,100,0.00,40.00,0,-999,0,0.09
2012-12-22,39,35,28,-100,-100,-100,0,0,100,0.00,40.00,0,-999,0,0.01
2012-12-23,34,30,17,-100,-100,-100,0,0,100,0.00,40.00,0,-999,0,0.30
2012-12-24,36,25,16,-100,-100,-100,0,0,100,0.00,40.00,0,-999,0,0.06
2012-12-25,34,30,26,-100,-100,-100,0,0,100,0.00,40.00,0,-999,0,0.10
2012-12-26,41,31,23,-100,-100,-100,0,0,100,0.00,40.00,0,-999,0,0.14
2012-12-27,40,26,10,-100,-100,-100,0,0,100,0.00,40.00,0,-999,0,0.03
2012-12-28,31,25,17,-100,-100,-100,0,0,100,0.00,40.00,0,-999,0,0.01
2012-12-29,32,24,6,-100,-100,-100,0,0,100,0.00,40.00,0,-999,0,0.14
2012-12-30,25,22,9,-100,-100,-100,0,0,100,0.00,40.00,0,-999,0,0.15
2012-12-31,29,20,13,-100,-100,-100,0,0,100,0.00,40.00,0,-999,0,0.01